Time,TemperatureF,DewpointF,PressureIn,WindDirection,WindDirectionDegrees,WindSpeedMPH,WindSpeedGustMPH,Humidity,HourlyPrecipIn,Conditions,Clouds,dailyrainin,SolarRadiationWatts/m^2,SoftwareType,DateUTC
2013-08-18 00:00:00,58.0,56.0,-100.00,ENE,67,0.0,-999.0,93,-99.99,,,-99.99,0.000000,,2013-08-18 04:00:00,
2013-08-18 00:42:00,58.0,56.0,-100.00,ENE,67,0.0,-999.0,93,-99.99,,,-99.99,0.000000,,2013-08-18 04:42:00,
2013-08-18 00:53:00,58.0,56.0,-100.00,ENE,67,0.0,-999.0,93,-99.99,,,-99.99,0.000000,,2013-08-18 04:53:00,
2013-08-18 01:00:00,56.0,55.0,-100.00,East,90,0.0,-999.0,95,-99.99,,,-99.99,1.160000,,2013-08-18 05:00:00,
2013-08-18 01:43:00,56.0,55.0,-100.00,East,90,0.0,-999.0,95,-99.99,,,-99.99,1.160000,,2013-08-18 05:43:00,
2013-08-18 01:52:00,56.0,55.0,-100.00,East,90,0.0,-999.0,95,-99.99,,,-99.99,1.160000,,2013-08-18 05:52:00,
2013-08-18 02:00:00,54.0,53.0,-100.00,ESE,112,0.0,-999.0,95,-99.99,,,-99.99,1.160000,,2013-08-18 06:00:00,
2013-08-18 02:42:00,54.0,53.0,-100.00,ESE,112,0.0,-999.0,95,-99.99,,,-99.99,1.160000,,2013-08-18 06:42:00,
2013-08-18 02:52:00,54.0,53.0,-100.00,ESE,112,0.0,-999.0,95,-99.99,,,-99.99,1.160000,,2013-08-18 06:52:00,
2013-08-18 03:00:00,54.0,53.0,-100.00,SE,135,0.0,-999.0,96,-99.99,,,-99.99,1.160000,,2013-08-18 07:00:00,
2013-08-18 03:42:00,54.0,53.0,-100.00,SE,135,0.0,-999.0,96,-99.99,,,-99.99,1.160000,,2013-08-18 07:42:00,
2013-08-18 03:52:00,54.0,53.0,-100.00,SE,135,0.0,-999.0,96,-99.99,,,-99.99,1.160000,,2013-08-18 07:52:00,
2013-08-18 04:00:00,54.0,54.0,-100.00,SE,135,0.0,-999.0,96,-99.99,,,-99.99,1.160000,,2013-08-18 08:00:00,
2013-08-18 04:42:00,54.0,54.0,-100.00,SE,135,0.0,-999.0,96,-99.99,,,-99.99,1.160000,,2013-08-18 08:42:00,
2013-08-18 04:52:00,54.0,54.0,-100.00,SE,135,0.0,-999.0,96,-99.99,,,-99.99,1.160000,,2013-08-18 08:52:00,
2013-08-18 05:00:00,53.0,52.0,-100.00,ESE,112,0.0,-999.0,96,-99.99,,,-99.99,1.160000,,2013-08-18 09:00:00,
2013-08-18 05:43:00,53.0,52.0,-100.00,ESE,112,0.0,-999.0,96,-99.99,,,-99.99,1.160000,,2013-08-18 09:43:00,
2013-08-18 05:53:00,53.0,52.0,-100.00,ESE,112,0.0,-999.0,96,-99.99,,,-99.99,1.160000,,2013-08-18 09:53:00,
2013-08-18 06:00:00,51.0,50.0,-100.00,East,90,0.0,-999.0,96,-99.99,,,-99.99,1.160000,,2013-08-18 10:00:00,
2013-08-18 06:43:00,51.0,50.0,-100.00,East,90,0.0,-999.0,96,-99.99,,,-99.99,1.160000,,2013-08-18 10:43:00,
2013-08-18 06:52:00,51.0,50.0,-100.00,East,90,0.0,-999.0,96,-99.99,,,-99.99,1.160000,,2013-08-18 10:52:00,
2013-08-18 07:00:00,50.0,49.0,-100.00,East,90,0.0,-999.0,96,-99.99,,,-99.99,2.320000,,2013-08-18 11:00:00,
2013-08-18 07:42:00,50.0,49.0,-100.00,East,90,0.0,-999.0,96,-99.99,,,-99.99,2.320000,,2013-08-18 11:42:00,
2013-08-18 07:52:00,50.0,49.0,-100.00,East,90,0.0,-999.0,96,-99.99,,,-99.99,2.320000,,2013-08-18 11:52:00,
2013-08-18 08:00:00,51.0,50.0,-100.00,ESE,112,0.0,-999.0,97,-99.99,,,-99.99,58.000000,,2013-08-18 12:00:00,
2013-08-18 08:42:00,51.0,50.0,-100.00,ESE,112,0.0,-999.0,97,-99.99,,,-99.99,58.000000,,2013-08-18 12:42:00,
2013-08-18 08:52:00,51.0,50.0,-100.00,ESE,112,0.0,-999.0,97,-99.99,,,-99.99,58.000000,,2013-08-18 12:52:00,
2013-08-18 09:00:00,59.0,57.0,-100.00,ESE,112,1.0,-999.0,91,-99.99,,,-99.99,197.199997,,2013-08-18 13:00:00,
2013-08-18 09:42:00,59.0,57.0,-100.00,ESE,112,1.0,-999.0,91,-99.99,,,-99.99,197.199997,,2013-08-18 13:42:00,
2013-08-18 09:52:00,59.0,57.0,-100.00,ESE,112,1.0,-999.0,91,-99.99,,,-99.99,197.199997,,2013-08-18 13:52:00,
2013-08-18 10:00:00,66.0,58.0,-100.00,East,90,2.0,-999.0,75,-99.99,,,-99.99,354.959991,,2013-08-18 14:00:00,
2013-08-18 10:42:00,66.0,58.0,-100.00,East,90,2.0,-999.0,75,-99.99,,,-99.99,354.959991,,2013-08-18 14:42:00,
2013-08-18 10:53:00,66.0,58.0,-100.00,East,90,2.0,-999.0,75,-99.99,,,-99.99,354.959991,,2013-08-18 14:53:00,
2013-08-18 11:00:00,71.0,58.0,-100.00,East,90,3.0,-999.0,63,-99.99,,,-99.99,508.079987,,2013-08-18 15:00:00,
2013-08-18 11:43:00,71.0,58.0,-100.00,East,90,3.0,-999.0,63,-99.99,,,-99.99,508.079987,,2013-08-18 15:43:00,
2013-08-18 11:54:00,71.0,58.0,-100.00,East,90,3.0,-999.0,63,-99.99,,,-99.99,508.079987,,2013-08-18 15:54:00,
2013-08-18 12:00:00,75.0,57.0,-100.00,East,90,2.0,-999.0,53,-99.99,,,-99.99,631.039978,,2013-08-18 16:00:00,
2013-08-18 12:42:00,75.0,57.0,-100.00,East,90,2.0,-999.0,53,-99.99,,,-99.99,631.039978,,2013-08-18 16:42:00,
2013-08-18 12:52:00,75.0,57.0,-100.00,East,90,2.0,-999.0,53,-99.99,,,-99.99,631.039978,,2013-08-18 16:52:00,
2013-08-18 13:00:00,77.0,58.0,-100.00,SE,135,2.0,-999.0,50,-99.99,,,-99.99,720.359985,,2013-08-18 17:00:00,
2013-08-18 13:43:00,77.0,58.0,-100.00,SE,135,2.0,-999.0,50,-99.99,,,-99.99,720.359985,,2013-08-18 17:43:00,
2013-08-18 13:52:00,77.0,58.0,-100.00,SE,135,2.0,-999.0,50,-99.99,,,-99.99,720.359985,,2013-08-18 17:52:00,
2013-08-18 14:00:00,78.0,58.0,-100.00,ESE,112,3.0,-999.0,49,-99.99,,,-99.99,721.520020,,2013-08-18 18:00:00,
2013-08-18 14:42:00,78.0,58.0,-100.00,ESE,112,3.0,-999.0,49,-99.99,,,-99.99,721.520020,,2013-08-18 18:42:00,
2013-08-18 14:52:00,78.0,58.0,-100.00,ESE,112,3.0,-999.0,49,-99.99,,,-99.99,721.520020,,2013-08-18 18:52:00,
2013-08-18 15:00:00,79.0,58.0,-100.00,ESE,112,2.0,-999.0,49,-99.99,,,-99.99,643.799988,,2013-08-18 19:00:00,
2013-08-18 15:42:00,79.0,58.0,-100.00,ESE,112,2.0,-999.0,49,-99.99,,,-99.99,643.799988,,2013-08-18 19:42:00,
2013-08-18 15:52:00,79.0,58.0,-100.00,ESE,112,2.0,-999.0,49,-99.99,,,-99.99,643.799988,,2013-08-18 19:52:00,
2013-08-18 16:00:00,79.0,59.0,-100.00,ESE,112,2.0,-999.0,50,-99.99,,,-99.99,484.880005,,2013-08-18 20:00:00,
2013-08-18 16:42:00,79.0,59.0,-100.00,ESE,112,2.0,-999.0,50,-99.99,,,-99.99,484.880005,,2013-08-18 20:42:00,
2013-08-18 16:52:00,79.0,59.0,-100.00,ESE,112,2.0,-999.0,50,-99.99,,,-99.99,484.880005,,2013-08-18 20:52:00,
2013-08-18 17:00:00,81.0,56.0,-100.00,SSW,202,2.0,-999.0,42,-99.99,,,-99.99,564.919983,,2013-08-18 21:00:00,
2013-08-18 17:42:00,81.0,56.0,-100.00,SSW,202,2.0,-999.0,42,-99.99,,,-99.99,564.919983,,2013-08-18 21:42:00,
2013-08-18 17:53:00,81.0,56.0,-100.00,SSW,202,2.0,-999.0,42,-99.99,,,-99.99,564.919983,,2013-08-18 21:53:00,
2013-08-18 18:00:00,78.0,60.0,-100.00,West,270,4.0,-999.0,54,-99.99,,,-99.99,451.239990,,2013-08-18 22:00:00,
2013-08-18 18:42:00,78.0,60.0,-100.00,West,270,4.0,-999.0,54,-99.99,,,-99.99,451.239990,,2013-08-18 22:42:00,
2013-08-18 18:52:00,78.0,60.0,-100.00,West,270,4.0,-999.0,54,-99.99,,,-99.99,451.239990,,2013-08-18 22:52:00,
2013-08-18 19:00:00,75.0,59.0,-100.00,WNW,292,4.0,-999.0,58,-99.99,,,-99.99,287.679993,,2013-08-18 23:00:00,
2013-08-18 19:42:00,75.0,59.0,-100.00,WNW,292,4.0,-999.0,58,-99.99,,,-99.99,287.679993,,2013-08-18 23:42:00,
2013-08-18 19:52:00,75.0,59.0,-100.00,WNW,292,4.0,-999.0,58,-99.99,,,-99.99,287.679993,,2013-08-18 23:52:00,
2013-08-18 20:00:00,72.0,58.0,-100.00,WNW,292,2.0,-999.0,61,-99.99,,,-99.99,134.559998,,2013-08-19 00:00:00,
2013-08-18 20:42:00,72.0,58.0,-100.00,WNW,292,2.0,-999.0,61,-99.99,,,-99.99,134.559998,,2013-08-19 00:42:00,
2013-08-18 20:52:00,72.0,58.0,-100.00,WNW,292,2.0,-999.0,61,-99.99,,,-99.99,134.559998,,2013-08-19 00:52:00,
2013-08-18 21:00:00,66.0,60.0,-100.00,NW,315,1.0,-999.0,78,-99.99,,,-99.99,16.240000,,2013-08-19 01:00:00,
2013-08-18 21:42:00,66.0,60.0,-100.00,NW,315,1.0,-999.0,78,-99.99,,,-99.99,16.240000,,2013-08-19 01:42:00,
2013-08-18 21:52:00,66.0,60.0,-100.00,NW,315,1.0,-999.0,78,-99.99,,,-99.99,16.240000,,2013-08-19 01:52:00,
2013-08-18 22:00:00,61.0,59.0,-100.00,NW,315,0.0,-999.0,91,-99.99,,,-99.99,1.160000,,2013-08-19 02:00:00,
2013-08-18 22:42:00,61.0,59.0,-100.00,NW,315,0.0,-999.0,91,-99.99,,,-99.99,1.160000,,2013-08-19 02:42:00,
2013-08-18 22:52:00,61.0,59.0,-100.00,NW,315,0.0,-999.0,91,-99.99,,,-99.99,1.160000,,2013-08-19 02:52:00,
2013-08-18 23:00:00,59.0,57.0,-100.00,NW,315,0.0,-999.0,94,-99.99,,,-99.99,1.160000,,2013-08-19 03:00:00,
2013-08-18 23:42:00,59.0,57.0,-100.00,NW,315,0.0,-999.0,94,-99.99,,,-99.99,1.160000,,2013-08-19 03:42:00,
2013-08-18 23:53:00,59.0,57.0,-100.00,NW,315,0.0,-999.0,94,-99.99,,,-99.99,1.160000,,2013-08-19 03:53:00,